カタログに戻る

MARAFON NO. 1

運用中科学SSO
NORAD 67250·PAYLOAD·🇹🇷 Turkey
この衛星名は、まだ公式ソースで確認されていません。

打ち上げ Dec 28, 2025 から Vostochny Cosmodrome

Loading…

次のパス (今後24時間)

TLE

最新Source: Space-Track

元期: Sep 14, 2026, 22:07 UTC

1 67250U 25313C   26257.92167520  .00007381  00000-0  62460-3 0  9998
2 67250  97.6093 325.3072 0147867  39.3153 321.8690 14.90139076 38713

AllMySatでMARAFON NO. 1をリアルタイム追跡

Download on the App Store